| time (UTC) | temp F | wind direction | speed knots | gust knots | rain 1hr in | rain 24hr in | rain mn in | humidity % | barometer mb |
| 20260506015008 | 51 | 317 | 4.3 | 15.6 | 0.00 | 0.00 | 0.00 | 75 | 1010.6 |
| 20260506014525 | 51 | 19 | 4.3 | 9.6 | 0.00 | 0.00 | 0.00 | 75 | 1010.7 |
| 20260506014008 | 51 | 33 | 4.3 | 9.6 | 0.00 | 0.00 | 0.00 | 75 | 1010.7 |
| 20260506013507 | 51 | 23 | 3.5 | 11.3 | 0.00 | 0.00 | 0.00 | 75 | 1010.4 |
| 20260506013024 | 51 | 49 | 6.1 | 13.0 | 0.00 | 0.00 | 0.00 | 75 | 1010.2 |
| 20260506012504 | 51 | 10 | 7.0 | 13.0 | 0.00 | 0.00 | 0.00 | 75 | 1010.0 |
| 20260506012004 | 51 | 37 | 4.3 | 13.0 | 0.00 | 0.00 | 0.00 | 75 | 1009.9 |
| 20260506011525 | 51 | 51 | 6.1 | 13.0 | 0.00 | 0.00 | 0.00 | 74 | 1010.1 |
| 20260506011007 | 51 | 38 | 6.1 | 13.9 | 0.00 | 0.00 | 0.00 | 74 | 1010.3 |
| 20260506010507 | 51 | 76 | 6.1 | 15.6 | 0.00 | 0.00 | 0.00 | 74 | 1010.2 |
| 20260506010022 | 51 | 36 | 8.7 | 15.6 | 0.00 | 0.00 | 0.00 | 74 | 1010.1 |
| 20260506005502 | 51 | 360 | 6.1 | 15.6 | 0.00 | 0.00 | 0.00 | 73 | 1009.8 |
| 20260506005009 | 51 | 20 | 8.7 | 15.6 | 0.00 | 0.00 | 0.00 | 73 | 1010.1 |
| 20260506004523 | 51 | 23 | 5.2 | 13.9 | 0.00 | 0.00 | 0.00 | 73 | 1010.0 |
| 20260506004004 | 52 | 4 | 7.0 | 13.9 | 0.00 | 0.00 | 0.00 | 72 | 1009.9 |
| 20260506003509 | 52 | 33 | 6.1 | 14.8 | 0.00 | 0.00 | 0.00 | 72 | 1009.9 |
| 20260506003012 | 52 | 348 | 6.1 | 15.6 | 0.00 | 0.00 | 0.00 | 71 | 1010.1 |
| 20260506002510 | 52 | 63 | 7.8 | 14.8 | 0.00 | 0.00 | 0.00 | 71 | 1010.0 |
| 20260506002008 | 52 | 29 | 7.8 | 13.9 | 0.00 | 0.00 | 0.00 | 71 | 1010.0 |
| 20260506001508 | 52 | 19 | 5.2 | 13.9 | 0.00 | 0.00 | 0.00 | 71 | 1009.6 |
| 20260506001007 | 52 | 52 | 6.1 | 13.9 | 0.00 | 0.00 | 0.00 | 71 | 1009.6 |
| 20260506000507 | 52 | 25 | 6.1 | 16.5 | 0.00 | 0.00 | 0.00 | 71 | 1009.7 |
| 20260506000041 | 52 | 49 | 5.2 | 16.5 | 0.00 | 0.00 | 0.00 | 71 | 1009.6 |
| 20260505235506 | 52 | 18 | 4.3 | 20.9 | 0.00 | 0.00 | 0.00 | 70 | 1009.7 |
| 20260505235007 | 52 | 48 | 9.6 | 20.9 | 0.00 | 0.00 | 0.00 | 70 | 1009.7 |
| 20260505234526 | 52 | 24 | 9.6 | 14.8 | 0.00 | 0.00 | 0.00 | 71 | 1009.8 |
| 20260505234008 | 52 | 34 | 7.8 | 14.8 | 0.00 | 0.00 | 0.00 | 71 | 1009.7 |
| 20260505233504 | 52 | 343 | 8.7 | 14.8 | 0.00 | 0.00 | 0.00 | 70 | 1009.7 |
| 20260505233023 | 53 | 39 | 7.0 | 16.5 | 0.00 | 0.00 | 0.00 | 70 | 1009.6 |
| 20260505232511 | 53 | 21 | 9.6 | 16.5 | 0.00 | 0.00 | 0.00 | 70 | 1009.3 |
| 20260505232011 | 53 | 32 | 5.2 | 13.9 | 0.00 | 0.00 | 0.00 | 70 | 1009.4 |
| 20260505231528 | 53 | 26 | 7.8 | 14.8 | 0.00 | 0.00 | 0.00 | 70 | 1009.3 |
| 20260505231003 | 53 | 14 | 7.0 | 14.8 | 0.00 | 0.00 | 0.00 | 70 | 1009.3 |
| 20260505230506 | 53 | 20 | 7.0 | 13.9 | 0.00 | 0.00 | 0.00 | 70 | 1009.2 |
| 20260505230032 | 53 | 13 | 7.8 | 16.5 | 0.00 | 0.00 | 0.00 | 69 | 1009.1 |
| 20260505225504 | 53 | 23 | 8.7 | 17.4 | 0.00 | 0.00 | 0.00 | 69 | 1009.1 |
| 20260505225014 | 53 | 334 | 6.1 | 17.4 | 0.00 | 0.00 | 0.00 | 69 | 1009.0 |
| 20260505224516 | 53 | 33 | 3.5 | 16.5 | 0.00 | 0.00 | 0.00 | 69 | 1008.6 |
| 20260505224009 | 53 | 304 | 8.7 | 16.5 | 0.00 | 0.00 | 0.00 | 69 | 1008.5 |
| 20260505223509 | 53 | 42 | 6.1 | 15.6 | 0.00 | 0.00 | 0.00 | 70 | 1008.7 |
| 20260505223014 | 53 | 348 | 7.8 | 15.6 | 0.00 | 0.00 | 0.00 | 69 | 1008.8 |
| 20260505222511 | 53 | 344 | 6.1 | 16.5 | 0.00 | 0.00 | 0.00 | 70 | 1008.6 |
| 20260505222013 | 53 | 4 | 9.6 | 16.5 | 0.00 | 0.00 | 0.00 | 70 | 1008.3 |
| 20260505221512 | 54 | 44 | 7.8 | 20.0 | 0.00 | 0.00 | 0.00 | 71 | 1008.2 |
| 20260505221006 | 53 | 31 | 5.2 | 17.4 | 0.00 | 0.00 | 0.00 | 71 | 1008.2 |
| 20260505220506 | 54 | 20 | 11.3 | 17.4 | 0.00 | 0.00 | 0.00 | 70 | 1008.4 |
| 20260505220029 | 54 | 6 | 8.7 | 16.5 | 0.00 | 0.00 | 0.00 | 70 | 1008.5 |
| 20260505215506 | 54 | 48 | 7.0 | 15.6 | 0.00 | 0.00 | 0.00 | 70 | 1008.5 |
| 20260505215006 | 54 | 24 | 4.3 | 15.6 | 0.00 | 0.00 | 0.00 | 71 | 1008.3 |
| 20260505214526 | 54 | 67 | 8.7 | 15.6 | 0.00 | 0.00 | 0.00 | 71 | 1008.2 |
| 20260505214011 | 54 | 7 | 8.7 | 14.8 | 0.00 | 0.00 | 0.00 | 71 | 1008.2 |
| 20260505213507 | 54 | 25 | 7.8 | 14.8 | 0.00 | 0.00 | 0.00 | 71 | 1008.4 |
| 20260505213028 | 54 | 39 | 5.2 | 20.9 | 0.00 | 0.00 | 0.00 | 72 | 1008.6 |
| 20260505212506 | 54 | 18 | 7.8 | 20.9 | 0.00 | 0.00 | 0.00 | 72 | 1008.6 |
| 20260505212013 | 54 | 18 | 10.4 | 15.6 | 0.00 | 0.00 | 0.00 | 72 | 1008.5 |
| 20260505211530 | 55 | 15 | 7.0 | 17.4 | 0.00 | 0.00 | 0.00 | 73 | 1008.4 |
| 20260505211005 | 55 | 296 | 10.4 | 17.4 | 0.00 | 0.00 | 0.00 | 73 | 1008.1 |
| 20260505210508 | 55 | 50 | 3.5 | 14.8 | 0.00 | 0.00 | 0.00 | 74 | 1007.9 |
| 20260505210022 | 54 | 54 | 7.8 | 16.5 | 0.00 | 0.00 | 0.00 | 74 | 1007.7 |
| 20260505205508 | 54 | 40 | 9.6 | 16.5 | 0.00 | 0.00 | 0.00 | 75 | 1007.7 |
| 20260505205011 | 54 | 4 | 7.0 | 16.5 | 0.00 | 0.00 | 0.00 | 75 | 1007.8 |
| 20260505204517 | 55 | 20 | 6.1 | 16.5 | 0.00 | 0.00 | 0.00 | 1007.9 | |
| 20260505204008 | 55 | 321 | 7.0 | 14.8 | 0.00 | 0.00 | 0.00 | 76 | 1008.3 |
| 20260505203508 | 55 | 8 | 7.0 | 14.8 | 0.00 | 0.00 | 0.00 | 76 | 1008.2 |
| 20260505203018 | 55 | 279 | 5.2 | 12.2 | 0.00 | 0.00 | 0.00 | 76 | 1008.2 |
| 20260505202511 | 55 | 314 | 6.1 | 13.0 | 0.00 | 0.00 | 0.00 | 75 | 1008.1 |
| 20260505202003 | 55 | 9 | 5.2 | 13.9 | 0.00 | 0.00 | 0.00 | 75 | 1007.9 |
| 20260505201513 | 56 | 303 | 6.1 | 15.6 | 0.00 | 0.00 | 0.00 | 1007.7 | |
| 20260505201004 | 56 | 2 | 7.8 | 15.6 | 0.00 | 0.00 | 0.00 | 1007.6 | |
| 20260505200508 | 56 | 37 | 5.2 | 14.8 | 0.00 | 0.00 | 0.00 | 1007.7 | |
| 20260505200012 | 56 | 23 | 8.7 | 21.7 | 0.00 | 0.00 | 0.00 | 1007.8 | |
| 20260505195504 | 56 | 40 | 8.7 | 21.7 | 0.00 | 0.00 | 0.00 | 76 | 1007.7 |
| 20260505195005 | 56 | 25 | 6.1 | 17.4 | 0.00 | 0.00 | 0.00 | 76 | 1007.7 |
| 20260505194529 | 56 | 42 | 5.2 | 17.4 | 0.00 | 0.00 | 0.00 | 76 | 1007.7 |
| 20260505194004 | 56 | 13 | 8.7 | 17.4 | 0.00 | 0.00 | 0.00 | 76 | 1007.6 |
| 20260505193507 | 56 | 22 | 7.0 | 15.6 | 0.00 | 0.00 | 0.00 | 76 | 1007.7 |
| 20260505193009 | 56 | 358 | 7.8 | 13.0 | 0.00 | 0.00 | 0.00 | 77 | 1007.8 |
| 20260505192507 | 56 | 17 | 6.1 | 13.0 | 0.00 | 0.00 | 0.00 | 77 | 1007.7 |
| 20260505192004 | 56 | 14 | 4.3 | 15.6 | 0.00 | 0.00 | 0.00 | 78 | 1007.5 |
| 20260505191503 | 56 | 325 | 3.5 | 15.6 | 0.00 | 0.00 | 0.00 | 78 | 1007.4 |
| 20260505191008 | 56 | 316 | 7.0 | 14.8 | 0.00 | 0.00 | 0.00 | 78 | 1007.4 |
| 20260505190503 | 56 | 6 | 6.1 | 16.5 | 0.00 | 0.00 | 0.00 | 78 | 1007.2 |
| 20260505190004 | 56 | 11 | 6.1 | 16.5 | 0.00 | 0.00 | 0.00 | 78 | 1007.3 |
| 20260505185508 | 56 | 30 | 3.5 | 16.5 | 0.00 | 0.00 | 0.00 | 79 | 1007.0 |
| 20260505185005 | 56 | 56 | 7.0 | 16.5 | 0.00 | 0.00 | 0.00 | 78 | 1007.1 |
| 20260505184521 | 56 | 9 | 6.1 | 18.2 | 0.00 | 0.00 | 0.00 | 78 | 1007.1 |
| 20260505184007 | 56 | 17 | 5.2 | 18.2 | 0.00 | 0.00 | 0.00 | 79 | 1007.1 |
| 20260505183503 | 56 | 256 | 5.2 | 12.2 | 0.00 | 0.00 | 0.00 | 79 | 1007.1 |
| 20260505183019 | 56 | 42 | 7.0 | 13.9 | 0.00 | 0.00 | 0.00 | 80 | 1007.1 |
| 20260505182513 | 56 | 354 | 7.0 | 13.9 | 0.00 | 0.00 | 0.00 | 80 | 1007.2 |
| 20260505182004 | 56 | 21 | 6.1 | 14.8 | 0.00 | 0.00 | 0.00 | 80 | 1007.1 |
| 20260505181518 | 56 | 351 | 4.3 | 18.2 | 0.00 | 0.00 | 0.00 | 80 | 1007.3 |
| 20260505181007 | 56 | 13 | 8.7 | 16.5 | 0.00 | 0.00 | 0.00 | 80 | 1007.2 |
| 20260505180507 | 56 | 13 | 7.0 | 15.6 | 0.00 | 0.00 | 0.00 | 80 | 1007.2 |
| 20260505180015 | 56 | 19 | 4.3 | 14.8 | 0.00 | 0.00 | 0.00 | 80 | 1007.1 |
| 20260505175503 | 57 | 15 | 7.0 | 14.8 | 0.00 | 0.00 | 0.00 | 80 | 1006.5 |
| 20260505175009 | 57 | 31 | 7.8 | 14.8 | 0.00 | 0.00 | 0.00 | 1006.0 | |
| 20260505174518 | 56 | 348 | 7.0 | 16.5 | 0.00 | 0.00 | 0.00 | 80 | 1006.0 |
| 20260505174007 | 56 | 24 | 8.7 | 16.5 | 0.00 | 0.00 | 0.00 | 80 | 1006.1 |
| 20260505173507 | 57 | 31 | 7.0 | 17.4 | 0.00 | 0.00 | 0.00 | 80 | 1006.1 |
| 20260505173009 | 57 | 25 | 8.7 | 17.4 | 0.00 | 0.00 | 0.00 | 80 | 1006.1 |
| 20260505172510 | 57 | 40 | 7.8 | 15.6 | 0.00 | 0.00 | 0.00 | 80 | 1006.1 |
| 20260505172008 | 57 | 24 | 5.2 | 13.0 | 0.00 | 0.00 | 0.00 | 81 | 1006.2 |
| 20260505171511 | 57 | 18 | 7.0 | 11.3 | 0.00 | 0.00 | 0.00 | 81 | 1006.2 |
| 20260505171010 | 58 | 9 | 3.5 | 17.4 | 0.00 | 0.00 | 0.00 | 81 | 1006.0 |
| 20260505170508 | 58 | 41 | 7.8 | 17.4 | 0.00 | 0.00 | 0.00 | 81 | 1005.8 |
| 20260505170004 | 58 | 17 | 7.0 | 15.6 | 0.00 | 0.00 | 0.00 | 81 | 1005.6 |
| 20260505165507 | 58 | 22 | 7.0 | 14.8 | 0.00 | 0.00 | 0.00 | 81 | 1005.6 |
| 20260505165003 | 59 | 22 | 7.8 | 13.9 | 0.00 | 0.00 | 0.00 | 81 | 1005.5 |
| 20260505164526 | 59 | 15 | 6.1 | 16.5 | 0.00 | 0.00 | 0.00 | 81 | 1005.4 |
| 20260505164006 | 59 | 12 | 9.6 | 16.5 | 0.00 | 0.00 | 0.00 | 81 | 1005.2 |
| 20260505163503 | 59 | 33 | 9.6 | 17.4 | 0.00 | 0.00 | 0.00 | 81 | 1005.3 |
| 20260505163019 | 60 | 15 | 7.0 | 18.2 | 0.00 | 0.00 | 0.00 | 80 | 1005.2 |
| 20260505162507 | 60 | 356 | 6.1 | 18.2 | 0.00 | 0.00 | 0.00 | 80 | 1005.2 |
| 20260505162012 | 61 | 11 | 5.2 | 15.6 | 0.00 | 0.00 | 0.00 | 80 | 1005.4 |
| 20260505161518 | 61 | 19 | 5.2 | 15.6 | 0.00 | 0.00 | 0.00 | 79 | 1005.2 |
| 20260505161004 | 62 | 25 | 6.1 | 13.9 | 0.00 | 0.00 | 0.00 | 79 | 1004.9 |
| 20260505160511 | 62 | 31 | 7.8 | 15.6 | 0.00 | 0.00 | 0.00 | 78 | 1004.9 |
| 20260505153028 | 70 | 38 | 5.2 | 9.6 | 0.00 | 0.00 | 0.00 | 75 | 1004.2 |
| 20260505152511 | 71 | 331 | 1.7 | 5.2 | 0.00 | 0.00 | 0.00 | 76 | 1004.1 |
| 20260505152011 | 71 | 100 | 0.0 | 5.2 | 0.00 | 0.00 | 0.00 | 75 | 1004.0 |
| 20260505151510 | 71 | 80 | 2.6 | 5.2 | 0.00 | 0.00 | 0.00 | 75 | 1003.9 |
| 20260505151008 | 72 | 93 | 0.0 | 7.0 | 0.00 | 0.00 | 0.00 | 75 | 1003.8 |
| 20260505150506 | 72 | 133 | 1.7 | 7.0 | 0.00 | 0.00 | 0.00 | 74 | 1003.7 |
| 20260505140507 | 68 | 125 | 6.1 | 15.6 | 0.00 | 0.00 | 0.00 | 78 | 1003.2 |
| 20260505125011 | 66 | 91 | 4.3 | 8.7 | 0.00 | 0.00 | 0.00 | 79 | 1003.8 |
| 20260505124527 | 66 | 117 | 3.5 | 8.7 | 0.00 | 0.00 | 0.00 | 79 | 1003.8 |
| 20260505124013 | 66 | 99 | 5.2 | 10.4 | 0.00 | 0.00 | 0.00 | 79 | 1003.8 |
| 20260505123509 | 66 | 58 | 6.1 | 10.4 | 0.00 | 0.00 | 0.00 | 79 | 1003.7 |
| 20260505123041 | 66 | 85 | 2.6 | 15.6 | 0.00 | 0.00 | 0.00 | 79 | 1003.6 |
| 20260505122510 | 66 | 86 | 7.0 | 15.6 | 0.00 | 0.00 | 0.00 | 79 | 1003.4 |
| 20260505122018 | 66 | 106 | 7.0 | 12.2 | 0.00 | 0.00 | 0.00 | 79 | 1003.4 |
| 20260505121526 | 66 | 52 | 7.0 | 12.2 | 0.00 | 0.00 | 0.00 | 79 | 1003.4 |
| 20260505121007 | 66 | 88 | 5.2 | 10.4 | 0.00 | 0.00 | 0.00 | 79 | 1003.4 |
| 20260505120509 | 66 | 23 | 4.3 | 10.4 | 0.00 | 0.00 | 0.00 | 79 | 1003.3 |
| 20260505120023 | 66 | 42 | 4.3 | 10.4 | 0.00 | 0.00 | 0.00 | 79 | 1003.4 |
| 20260505115507 | 66 | 71 | 6.1 | 11.3 | 0.00 | 0.00 | 0.00 | 79 | 1003.3 |
| 20260505115009 | 66 | 37 | 4.3 | 11.3 | 0.00 | 0.00 | 0.00 | 79 | 1003.2 |
| 20260505114523 | 66 | 95 | 6.1 | 11.3 | 0.00 | 0.00 | 0.00 | 79 | 1003.2 |
| 20260505114009 | 66 | 100 | 4.3 | 9.6 | 0.00 | 0.00 | 0.00 | 79 | 1003.3 |
| 20260505113508 | 66 | 65 | 4.3 | 9.6 | 0.00 | 0.00 | 0.00 | 79 | 1003.2 |
| 20260505113018 | 66 | 48 | 2.6 | 9.6 | 0.00 | 0.00 | 0.00 | 79 | 1003.2 |
| 20260505112512 | 66 | 19 | 4.3 | 8.7 | 0.00 | 0.00 | 0.00 | 79 | 1003.1 |
| 20260505112010 | 66 | 8 | 3.5 | 8.7 | 0.00 | 0.00 | 0.00 | 79 | 1003.0 |
| 20260505111520 | 66 | 79 | 4.3 | 9.6 | 0.00 | 0.00 | 0.00 | 79 | 1003.0 |
| 20260505111004 | 66 | 62 | 4.3 | 10.4 | 0.00 | 0.00 | 0.00 | 79 | 1002.9 |
| 20260505110509 | 66 | 79 | 6.1 | 10.4 | 0.00 | 0.00 | 0.00 | 79 | 1002.7 |
| 20260505102007 | 66 | 71 | 4.3 | 9.6 | 0.00 | 0.00 | 0.00 | 79 | 1002.2 |
| 20260505101508 | 66 | 45 | 2.6 | 9.6 | 0.00 | 0.00 | 0.00 | 79 | 1002.2 |
| 20260505101009 | 66 | 94 | 3.5 | 8.7 | 0.00 | 0.00 | 0.00 | 79 | 1002.2 |
| 20260505100507 | 66 | 81 | 3.5 | 8.7 | 0.00 | 0.00 | 0.00 | 79 | 1002.1 |
| 20260505100005 | 66 | 85 | 4.3 | 10.4 | 0.00 | 0.00 | 0.00 | 79 | 1002.0 |
| 20260505095512 | 66 | 79 | 2.6 | 10.4 | 0.00 | 0.00 | 0.00 | 79 | 1002.0 |
| 20260505095007 | 66 | 69 | 3.5 | 9.6 | 0.00 | 0.00 | 0.00 | 79 | 1001.9 |
| 20260505094526 | 66 | 55 | 5.2 | 9.6 | 0.00 | 0.00 | 0.00 | 79 | 1001.9 |
| 20260505094010 | 66 | 75 | 5.2 | 8.7 | 0.00 | 0.00 | 0.00 | 79 | 1002.1 |
| 20260505093505 | 66 | 71 | 3.5 | 10.4 | 0.00 | 0.00 | 0.00 | 79 | 1002.0 |
| 20260505093022 | 66 | 50 | 3.5 | 11.3 | 0.00 | 0.00 | 0.00 | 78 | 1002.1 |
| 20260505092508 | 66 | 67 | 6.1 | 11.3 | 0.00 | 0.00 | 0.00 | 78 | 1002.1 |
| 20260505092004 | 66 | 76 | 2.6 | 11.3 | 0.00 | 0.00 | 0.00 | 78 | 1002.1 |
| 20260505091522 | 67 | 71 | 6.1 | 11.3 | 0.00 | 0.00 | 0.00 | 77 | 1002.2 |
| 20260505091007 | 67 | 75 | 3.5 | 7.8 | 0.00 | 0.00 | 0.00 | 77 | 1002.2 |
| 20260505090510 | 67 | 69 | 4.3 | 8.7 | 0.00 | 0.00 | 0.00 | 76 | 1002.3 |
| 20260505090016 | 67 | 65 | 3.5 | 9.6 | 0.00 | 0.00 | 0.00 | 76 | 1002.4 |
| 20260505085503 | 67 | 80 | 3.5 | 9.6 | 0.00 | 0.00 | 0.00 | 76 | 1002.4 |
| 20260505085007 | 68 | 43 | 4.3 | 9.6 | 0.00 | 0.00 | 0.00 | 75 | 1002.4 |
| 20260505084517 | 68 | 69 | 3.5 | 7.8 | 0.00 | 0.00 | 0.00 | 75 | 1002.4 |
| 20260505084002 | 68 | 50 | 3.5 | 7.8 | 0.00 | 0.00 | 0.00 | 75 | 1002.2 |
| 20260505083507 | 68 | 85 | 4.3 | 8.7 | 0.00 | 0.00 | 0.00 | 75 | 1002.3 |
| 20260505083012 | 68 | 82 | 3.5 | 9.6 | 0.00 | 0.00 | 0.00 | 75 | 1002.4 |
| 20260505082510 | 68 | 94 | 5.2 | 8.7 | 0.00 | 0.00 | 0.00 | 74 | 1002.4 |
| 20260505082011 | 68 | 76 | 2.6 | 9.6 | 0.00 | 0.00 | 0.00 | 74 | 1002.4 |
| 20260505081508 | 68 | 98 | 2.6 | 9.6 | 0.00 | 0.00 | 0.00 | 74 | 1002.4 |
| 20260505081010 | 68 | 98 | 6.1 | 13.0 | 0.00 | 0.00 | 0.00 | 74 | 1002.3 |
| 20260505080510 | 68 | 104 | 7.0 | 13.0 | 0.00 | 0.00 | 0.00 | 75 | 1002.4 |
| 20260505080007 | 68 | 42 | 3.5 | 10.4 | 0.00 | 0.00 | 0.00 | 75 | 1002.4 |
| 20260505075510 | 68 | 79 | 4.3 | 7.8 | 0.00 | 0.00 | 0.00 | 75 | 1002.5 |
| 20260505075006 | 68 | 68 | 2.6 | 9.6 | 0.00 | 0.00 | 0.00 | 75 | 1002.7 |
| 20260505074007 | 68 | 34 | 4.3 | 8.7 | 0.00 | 0.00 | 0.00 | 75 | 1002.8 |
| 20260505073505 | 68 | 85 | 4.3 | 8.7 | 0.00 | 0.00 | 0.00 | 75 | 1003.0 |
| 20260505073024 | 68 | 53 | 3.5 | 7.0 | 0.00 | 0.00 | 0.00 | 75 | 1003.1 |
| 20260505072508 | 67 | 54 | 3.5 | 6.1 | 0.00 | 0.00 | 0.00 | 75 | 1003.1 |
| 20260505072010 | 67 | 56 | 3.5 | 7.0 | 0.00 | 0.00 | 0.00 | 75 | 1003.0 |
| 20260505071540 | 67 | 59 | 3.5 | 7.0 | 0.00 | 0.00 | 0.00 | 75 | 1003.2 |
| 20260505071006 | 67 | 44 | 4.3 | 7.8 | 0.00 | 0.00 | 0.00 | 75 | 1003.3 |
| 20260505070512 | 67 | 31 | 2.6 | 7.8 | 0.00 | 0.00 | 0.00 | 75 | 1003.3 |
| 20260505070018 | 67 | 63 | 1.7 | 5.2 | 0.00 | 0.00 | 0.00 | 75 | 1003.1 |
| 20260505065507 | 67 | 53 | 1.7 | 5.2 | 0.00 | 0.00 | 0.00 | 75 | 1003.4 |
| 20260505065007 | 67 | 29 | 1.7 | 5.2 | 0.00 | 0.00 | 0.00 | 75 | 1003.6 |
| 20260505064518 | 67 | 29 | 2.6 | 4.3 | 0.00 | 0.00 | 0.00 | 75 | 1003.7 |
| 20260505064012 | 67 | 36 | 0.9 | 3.5 | 0.00 | 0.00 | 0.00 | 74 | 1003.6 |
| 20260505063507 | 67 | 36 | 0.0 | 3.5 | 0.00 | 0.00 | 0.00 | 74 | 1003.6 |
| 20260505063015 | 68 | 94 | 0.9 | 2.6 | 0.00 | 0.00 | 0.00 | 74 | 1003.6 |
| 20260505062512 | 68 | 143 | 0.9 | 2.6 | 0.00 | 0.00 | 0.00 | 74 | 1003.4 |
| 20260505062008 | 68 | 144 | 0.0 | 5.2 | 0.00 | 0.00 | 0.00 | 74 | 1003.0 |
| 20260505061512 | 68 | 150 | 0.9 | 5.2 | 0.00 | 0.00 | 0.00 | 73 | 1002.6 |
| 20260505061007 | 68 | 150 | 3.5 | 7.8 | 0.00 | 0.00 | 0.00 | 73 | 1002.4 |
| 20260505060506 | 68 | 166 | 3.5 | 8.7 | 0.00 | 0.00 | 0.00 | 73 | 1002.4 |
| 20260505060010 | 68 | 139 | 3.5 | 8.7 | 0.00 | 0.00 | 0.00 | 73 | 1002.3 |
| 20260505055507 | 68 | 181 | 3.5 | 9.6 | 0.00 | 0.00 | 0.00 | 73 | 1002.4 |
| 20260505055007 | 68 | 193 | 4.3 | 10.4 | 0.00 | 0.00 | 0.00 | 72 | 1002.5 |
| 20260505054516 | 68 | 158 | 5.2 | 10.4 | 0.00 | 0.00 | 0.00 | 72 | 1002.6 |
| 20260505054008 | 68 | 158 | 3.5 | 12.2 | 0.00 | 0.00 | 0.00 | 72 | 1002.7 |
| 20260505053509 | 68 | 162 | 3.5 | 12.2 | 0.00 | 0.00 | 0.00 | 71 | 1002.8 |
| 20260505053005 | 69 | 174 | 3.5 | 9.6 | 0.00 | 0.00 | 0.00 | 71 | 1002.9 |
| 20260505052505 | 69 | 173 | 5.2 | 9.6 | 0.00 | 0.00 | 0.00 | 71 | 1002.8 |
| 20260505052007 | 69 | 124 | 5.2 | 10.4 | 0.00 | 0.00 | 0.00 | 70 | 1002.9 |
| 20260505051512 | 69 | 157 | 6.1 | 11.3 | 0.00 | 0.00 | 0.00 | 70 | 1003.0 |
| 20260505051007 | 69 | 159 | 5.2 | 11.3 | 0.00 | 0.00 | 0.00 | 71 | 1002.8 |
| 20260505050503 | 68 | 154 | 4.3 | 9.6 | 0.00 | 0.00 | 0.00 | 71 | 1002.9 |
| 20260505041511 | 68 | 125 | 5.2 | 12.2 | 0.00 | 0.00 | 0.00 | 69 | 1002.9 |
| 20260505041004 | 68 | 159 | 3.5 | 11.3 | 0.00 | 0.00 | 0.00 | 69 | 1003.1 |
| 20260505040508 | 69 | 148 | 2.6 | 11.3 | 0.00 | 0.00 | 0.00 | 69 | 1003.2 |
| 20260505040016 | 69 | 136 | 3.5 | 11.3 | 0.00 | 0.00 | 0.00 | 69 | 1003.1 |
| 20260505035507 | 69 | 188 | 4.3 | 11.3 | 0.00 | 0.00 | 0.00 | 69 | 1003.0 |
| 20260505035011 | 69 | 110 | 3.5 | 12.2 | 0.00 | 0.00 | 0.00 | 68 | 1003.3 |
| 20260505034517 | 69 | 167 | 4.3 | 14.8 | 0.00 | 0.00 | 0.00 | 68 | 1003.2 |
| 20260505034007 | 69 | 157 | 7.0 | 14.8 | 0.00 | 0.00 | 0.00 | 67 | 1003.4 |
| 20260505033507 | 70 | 183 | 4.3 | 11.3 | 0.00 | 0.00 | 0.00 | 65 | 1003.5 |
| 20260505033010 | 70 | 108 | 4.3 | 11.3 | 0.00 | 0.00 | 0.00 | 64 | 1003.6 |
| 20260505032506 | 70 | 181 | 5.2 | 11.3 | 0.00 | 0.00 | 0.00 | 64 | 1003.5 |
| 20260505032008 | 70 | 146 | 5.2 | 12.2 | 0.00 | 0.00 | 0.00 | 64 | 1003.8 |
| 20260505031516 | 70 | 175 | 6.1 | 12.2 | 0.00 | 0.00 | 0.00 | 64 | 1003.7 |
| 20260505031007 | 70 | 123 | 4.3 | 11.3 | 0.00 | 0.00 | 0.00 | 64 | 1003.8 |
| 20260505025512 | 70 | 142 | 3.5 | 9.6 | 0.00 | 0.00 | 0.00 | 63 | 1004.1 |
| 20260505025004 | 71 | 115 | 4.3 | 9.6 | 0.00 | 0.00 | 0.00 | 62 | 1004.1 |
| 20260505024518 | 71 | 107 | 4.3 | 8.7 | 0.00 | 0.00 | 0.00 | 62 | 1004.0 |
| 20260505024009 | 71 | 119 | 2.6 | 11.3 | 0.00 | 0.00 | 0.00 | 61 | 1004.2 |
| 20260505023507 | 71 | 165 | 2.6 | 11.3 | 0.00 | 0.00 | 0.00 | 61 | 1004.2 |
| 20260505023019 | 71 | 160 | 3.5 | 9.6 | 0.00 | 0.00 | 0.00 | 61 | 1004.1 |
| 20260505022506 | 72 | 175 | 5.2 | 10.4 | 0.00 | 0.00 | 0.00 | 60 | 1004.0 |
| 20260505022010 | 72 | 154 | 7.0 | 10.4 | 0.00 | 0.00 | 0.00 | 60 | 1003.9 |
| 20260505021523 | 72 | 142 | 6.1 | 13.0 | 0.00 | 0.00 | 0.00 | 60 | 1004.0 |
| 20260505021007 | 72 | 150 | 6.1 | 13.0 | 0.00 | 0.00 | 0.00 | 60 | 1003.9 |
| 20260505020507 | 72 | 123 | 7.0 | 13.0 | 0.00 | 0.00 | 0.00 | 60 | 1004.1 |
| 20260505020018 | 72 | 141 | 4.3 | 10.4 | 0.00 | 0.00 | 0.00 | 59 | 1004.0 |
| 20260505015507 | 72 | 154 | 3.5 | 10.4 | 0.00 | 0.00 | 0.00 | 59 | 1004.0 |